• Join FlightAware (Why Join?)
  • Login
  • US Flag 
08:22PM EDT


 

Airport Tracker/Info


-or-


 

Live Flight TrackerFlight Track Log ✈ EJA929 ✈ 16-May-2013 ✈ KVNY - KSJC

Flight Track Log - Related Links

Times and Time Zones

All times are in EDT time to prevent confusion due to time zone crossing. See the EJA929 flight status page for this flight to view local times or setup timezone preferences in your user account.

Time Position Orientation Groundspeed Altitude Reporting Facility
EDT Latitude Longitude Course Direction KTS MPH feet Rate Location/Type
10:12PM 34.1600 -118.4867 340° North 210 242 1,900  Level Los Angeles Center
10:13PM 34.1344 -118.5383 239° Southwest 232 267 4,300 1,980 Climbing Los Angeles Center
10:14PM 34.1956 -118.5764 333° Northwest 253 291 6,100 2,340 Climbing Los Angeles Center
10:15PM 34.2658 -118.6086 339° North 268 308 9,200 3,000 Climbing Los Angeles Center
10:16PM 34.3464 -118.6464 339° North 285 328 12,300 2,820 Climbing Los Angeles Center
10:17PM 34.6022 -118.7546 340° North  Level FlightAware Approximate
10:17PM 34.4375 -118.6886 339° North 311 358 15,100  Level Los Angeles Center
10:18PM 34.5189 -118.7267 339° North 313 360 18,000 2,280 Climbing Los Angeles Center
10:19PM 34.6036 -118.7667 339° North 326 375 19,800 1,200 Climbing Los Angeles Center
10:20PM 34.7017 -118.8136 339° North 374 430 20,500 960 Climbing Los Angeles Center
10:21PM 34.8061 -118.8656 338° Northwest 403 464 21,900 1,380 Climbing Los Angeles Center
10:22PM 34.8997 -118.9414 326° Northwest 408 470 23,400 1,500 Climbing Los Angeles Center
10:23PM 35.0158 -119.0383 326° Northwest 419 482 25,100 1,680 Climbing Los Angeles Center
10:24PM 35.1178 -119.1214 326° Northwest 434 499 26,900 1,380 Climbing Los Angeles Center
10:25PM 35.1889 -119.2400 306° West 443 510 28,000 480 Climbing Los Angeles Center
10:26PM 35.2503 -119.3756 299° West 457 526 28,000  Level Los Angeles Center
10:27PM 35.3164 -119.5189 300° West 485 558 28,000  Level Los Angeles Center
10:28PM 35.3811 -119.6617 299° West 489 563 28,000  Level Oakland Center
10:29PM 35.4450 -119.8019 299° West 479 551 28,000  Level Oakland Center
10:30PM 35.5081 -119.9408 299° West 471 542 28,000  Level Oakland Center
10:31PM 35.5714 -120.0822 299° West 479 551 28,000  Level Oakland Center
10:32PM 35.6481 -120.2525 299° West 483 556 28,000  Level Oakland Center
10:33PM 35.7094 -120.3939 298° West 479 551 28,000  Level Oakland Center
10:34PM 35.7828 -120.5283 304° West 483 556 28,000  Level Oakland Center
10:35PM 35.8753 -120.6500 313° West 488 562 28,000  Level Oakland Center
10:36PM 35.9678 -120.7714 313° West 487 560 28,000  Level Oakland Center
10:37PM 36.0603 -120.8933 313° West 487 560 28,000  Level Oakland Center
10:38PM 36.1511 -121.0136 313° West 482 555 28,000 -900 Level Oakland Center
10:39PM 36.2378 -121.1300 313° West 467 537 26,200 -2,340 Descending Oakland Center
10:40PM 36.3419 -121.2683 313° West 460 529 23,300 -2,580 Descending Oakland Center
10:41PM 36.4217 -121.3769 312° West 434 499 21,000 -2,400 Descending Oakland Center
10:42PM 36.5056 -121.4742 317° Northwest 419 482 18,500 -2,160 Descending Oakland Center
10:43PM 36.5983 -121.5481 327° Northwest 399 459 16,600 -2,040 Descending Oakland Center
10:44PM 36.6925 -121.5950 338° Northwest 371 427 14,400 -2,100 Descending Oakland Center
10:45PM 36.7847 -121.6161 350° North 346 398 12,400 -1,980 Descending Oakland Center
10:46PM 36.8764 -121.6408 348° North 315 362 10,400 -1,440 Descending Oakland Center
10:48PM 37.0211 -121.6769 349° North 265 305 8,100 -1,260 Descending Oakland Center
10:49PM 37.0872 -121.6953 348° North 268 308 6,700 -1,560 Descending Oakland Center
10:50PM 37.1669 -121.7156 349° North 267 307 5,000 -1,140 Descending Oakland Center
10:52PM 37.2153 -121.7697 318° Northwest 244 281 4,500 -900 Descending Oakland Center
10:53PM 37.2578 -121.8186 318° Northwest 224 258 3,200 -1,320 Descending Oakland Center
10:54PM 37.2911 -121.8522 321° Northwest 181 208 1,800 -1,080 Descending Oakland Center
10:55PM 37.3169 -121.8825 317° Northwest 149 171 1,100 -780 Descending Oakland Center
10:56PM 37.3483 -121.9153 320° Northwest 130 150 300 -840 Descending Oakland Center
10:58PM 37.3500 -121.9167 North  Level FlightAware Approximate